Theta_e
309 308 308 309 307 306 306 306 305 303 302 302 302 302 303 304 310 312 317 320 317 317 311 307 315 316 316 318 320 321 325 327 326 327 328 328 329 328 327 325 327 328 329 329 329
308 309 309 309 309 307 306 306 307 305 302 302 302 302 303 306 311 315 320 319 315 309 307 310 311 315 317 317 319 321 324 324 324 326 327 327 328 329 328 327 327 328 329 328 328
306 306 307 309 310 309 306 305 306 308 304 302 302 302 304 306 317 321 319 311 309 307 314 316 313 314 316 318 319 320 323 323 323 323 324 325 326 327 329 329 328 327 329 329 328
304 305 306 308 310 309 306 305 307 307 306 302 302 302 304 306 325 317 315 311 310 309 318 314 313 314 316 318 319 320 321 322 322 322 323 324 324 325 326 328 329 328 327 327 327
304 304 305 308 310 309 306 306 305 304 303 302 302 302 304 320 319 319 314 311 312 317 317 315 315 315 316 317 319 320 321 321 322 322 322 323 323 323 324 326 328 328 327 326 326
308 308 307 309 310 307 306 304 303 303 302 302 302 302 306 318 319 318 314 313 319 315 317 316 317 317 316 317 318 318 319 320 321 321 321 322 322 322 323 324 326 327 328 326 325
310 310 309 311 309 306 306 308 308 304 302 302 301 303 313 316 313 317 316 316 316 315 316 316 316 316 316 317 317 317 318 318 319 319 319 319 321 320 321 322 324 324 326 325 324
310 310 311 311 307 308 310 310 310 310 304 302 303 307 316 315 314 314 317 316 316 315 315 315 315 315 315 316 317 317 318 318 318 319 319 319 319 320 320 320 321 321 321 322 323
309 311 312 308 309 310 310 310 311 310 304 305 309 313 318 314 312 313 314 315 315 315 314 315 314 314 315 316 316 317 316 318 318 319 319 319 319 320 319 319 321 320 321 320 322
310 311 312 307 310 311 311 311 314 311 311 311 314 318 319 317 315 311 314 315 315 314 314 314 315 316 316 316 316 317 317 317 318 319 319 319 319 320 319 320 320 320 321 321 321
309 311 311 308 311 312 314 319 320 321 321 320 321 318 318 317 316 316 314 314 314 314 315 316 316 317 317 318 318 318 318 317 318 319 320 319 319 319 320 319 319 320 320 320 320
306 311 309 309 311 314 316 319 316 316 317 317 318 317 316 316 316 316 315 315 315 316 316 316 317 317 317 317 316 317 318 318 318 319 319 319 318 319 319 320 320 320 320 320 319
309 308 307 310 311 315 316 316 315 316 318 318 319 316 315 314 316 316 315 315 316 316 316 317 317 318 318 316 316 316 316 317 317 318 318 318 318 318 319 319 319 319 320 320 320
311 308 307 311 317 317 318 317 315 317 320 322 318 316 315 315 316 316 316 316 317 316 316 316 318 317 317 317 316 316 316 316 317 317 317 318 319 320 321 321 321 319 319 318 318
303 311 309 309 309 317 317 315 314 318 330 320 319 316 316 316 317 317 316 316 316 316 317 317 317 317 317 316 316 316 316 316 316 317 318 318 318 318 319 319 319 320 318 318 318
306 304 311 315 315 318 316 316 316 324 329 320 317 316 316 316 316 316 316 315 315 316 317 317 316 317 317 317 316 316 316 316 316 317 318 318 318 319 319 320 320 321 318 317 318
307 306 305 312 317 316 317 316 322 326 322 320 318 317 317 317 317 318 318 318 317 317 318 318 319 319 318 317 317 316 316 315 317 318 319 318 319 321 320 320 319 320 318 318 318
309 308 305 310 316 316 317 319 322 321 321 320 318 317 316 317 317 318 318 318 318 318 319 320 322 320 318 319 319 319 318 317 317 318 317 319 323 320 321 318 317 318 317 317 316
309 318 315 319 318 315 317 321 321 321 320 318 317 315 317 318 318 318 317 318 318 318 319 319 318 318 318 318 318 319 318 317 320 320 319 318 320 320 320 320 317 316 316 316 316
310 318 319 319 316 315 317 319 320 319 318 317 316 316 316 317 317 318 318 317 317 317 317 318 319 316 316 317 317 318 317 321 321 323 321 319 318 319 319 320 319 317 315 315 317
312 319 320 317 315 315 319 320 320 317 314 313 314 315 315 315 315 317 317 316 316 316 317 317 319 318 316 315 318 317 319 318 319 321 320 320 318 319 318 319 319 317 316 317 317
311 319 318 312 314 318 320 317 315 315 313 313 313 313 314 316 317 317 316 315 315 315 316 316 318 318 315 315 316 316 316 318 320 321 320 321 320 319 317 318 319 317 317 317 316
309 315 317 313 317 317 316 315 315 314 313 312 314 314 315 314 315 315 314 314 313 314 315 315 315 316 315 316 317 315 315 314 315 318 317 320 319 317 318 319 317 317 317 316 316
311 315 316 315 315 315 315 314 314 313 313 311 312 313 313 314 314 314 313 313 313 313 312 312 312 313 315 314 315 316 315 315 315 321 320 317 317 316 318 317 316 317 317 316 317
313 314 314 315 315 315 315 315 314 314 313 312 312 312 312 312 311 312 313 313 313 314 313 313 313 313 312 313 313 313 313 314 315 316 316 315 315 316 317 317 317 316 316 315 315
310 309 309 311 313 315 314 315 314 313 311 310 309 310 310 310 311 312 312 311 311 312 312 314 315 313 314 314 313 314 314 315 314 314 313 313 315 315 316 315 315 316 316 315 317
308 307 307 310 313 313 315 314 312 310 309 308 308 309 309 309 309 309 309 309 311 311 312 312 313 315 316 314 313 314 316 315 315 316 314 315 315 317 317 316 316 317 317 318 319
Wind_Speed
16 15 14 14 13 13 12 12 10 10 8 7 7 7 9 10 9 9 9 9 9 14 15 12 10 14 17 22 24 24 15 17 25 25 22 25 18 18 16 13 13 13 17 11 5
16 16 14 14 14 13 13 12 11 11 9 7 6 6 9 10 12 14 10 13 19 14 10 9 12 14 20 23 26 22 16 26 23 23 22 26 25 21 20 14 14 18 24 15 7
17 16 16 14 13 13 13 12 12 12 10 8 7 7 8 9 11 6 11 9 6 6 8 8 13 16 21 22 26 27 24 22 27 29 30 30 30 28 19 18 21 21 24 21 6
19 17 15 14 13 12 12 11 11 11 10 9 7 7 7 7 3 8 4 2 1 5 5 8 10 15 18 19 25 25 30 32 29 31 32 25 30 29 33 21 22 28 25 27 21
18 18 15 13 12 13 12 11 10 8 7 8 7 7 6 8 14 7 4 2 2 2 6 8 11 15 16 19 24 24 25 30 32 34 31 30 29 29 31 32 16 18 19 21 24
15 15 15 11 10 11 11 10 8 6 4 5 6 6 6 13 5 5 3 3 2 5 8 8 9 8 15 19 19 25 25 29 29 30 28 25 24 31 34 30 26 25 22 15 19
17 12 11 11 9 8 7 7 7 6 4 4 5 6 10 19 4 6 7 8 6 7 8 8 9 9 9 12 22 21 21 19 23 23 22 29 28 25 35 32 28 31 27 22 24
19 13 8 6 7 5 5 7 7 5 3 2 3 4 10 6 14 12 10 10 9 9 10 10 9 14 16 18 20 17 17 18 22 23 27 25 25 24 31 29 32 32 32 32 24
19 14 9 5 4 5 4 5 5 2 1 2 3 5 13 6 10 13 13 13 12 10 10 10 11 15 16 15 15 15 17 21 24 23 21 24 27 23 29 29 28 34 26 38 19
21 14 8 4 4 5 4 4 6 3 2 6 9 9 15 12 9 11 12 13 12 10 13 13 15 12 13 13 15 18 19 20 22 19 20 25 23 17 21 24 26 21 20 17 15
21 15 8 2 4 6 6 8 4 4 10 15 9 13 8 7 6 9 11 11 11 13 13 17 13 14 17 17 20 20 21 24 21 20 17 15 17 18 21 28 24 16 18 20 20
19 14 9 3 3 3 6 6 6 10 13 18 24 19 16 7 11 13 12 15 15 14 15 15 16 16 17 18 20 21 19 20 20 21 19 19 18 14 18 21 25 23 27 24 23
18 12 6 4 4 3 7 8 11 13 10 19 17 14 13 14 15 14 15 17 15 17 17 17 19 17 18 14 18 18 18 20 22 21 21 21 20 17 20 25 29 28 23 22 23
16 11 4 3 6 8 7 8 13 9 5 10 9 10 9 11 15 17 14 18 18 19 19 17 18 18 18 17 13 20 19 21 20 18 15 17 15 19 22 25 24 28 25 22 27
17 10 6 5 9 9 8 11 11 6 5 8 10 6 7 13 3 10 11 16 16 18 19 20 19 18 19 16 16 21 19 15 20 17 16 20 14 18 20 20 13 13 17 18 13
20 13 10 6 9 4 10 10 6 5 6 6 6 6 10 15 16 15 11 14 16 18 20 23 28 24 25 21 16 17 14 14 17 14 15 22 17 18 18 21 19 18 20 17 15
22 18 14 11 8 9 10 7 6 5 1 1 0 4 9 13 15 13 13 17 17 20 20 23 20 21 24 22 20 18 15 13 14 12 16 23 11 19 20 21 13 17 18 17 13
25 17 11 12 7 10 8 8 8 11 11 13 8 13 17 18 18 18 15 17 19 19 15 15 17 17 12 16 18 17 17 13 18 13 15 10 6 11 24 10 2 16 24 20 16
23 8 5 3 6 7 11 9 14 11 12 10 15 18 16 14 12 9 15 16 19 15 16 16 20 7 8 14 6 11 15 19 15 17 14 16 12 15 21 18 12 12 5 6 6
21 5 9 10 5 5 9 15 20 18 6 10 14 12 16 17 19 19 19 15 23 8 11 17 20 14 14 4 4 8 9 8 5 4 12 13 16 11 3 12 19 12 10 13 15
15 7 6 4 4 10 9 15 16 15 11 6 13 17 18 19 18 19 19 19 13 9 12 10 13 15 11 10 21 9 14 20 11 9 7 10 11 5 4 5 18 11 13 13 16
9 7 6 1 8 11 10 13 10 14 15 13 14 16 17 17 17 19 19 19 6 10 8 4 6 12 18 18 21 19 17 3 4 8 8 8 11 13 3 4 5 7 6 7 9
14 18 8 3 6 9 16 16 22 16 11 8 12 15 16 17 17 15 18 20 19 7 7 6 5 11 13 13 12 6 18 10 13 10 12 11 14 9 4 17 14 14 21 16 21
9 6 6 9 19 8 12 16 15 19 13 11 11 13 15 16 14 16 18 17 6 10 8 1 9 14 14 19 16 6 11 13 9 8 9 15 23 16 9 4 13 24 19 24 28
8 11 7 8 13 19 16 16 17 15 11 10 9 15 16 15 17 17 15 14 13 7 4 6 12 15 18 20 22 22 23 18 21 21 17 18 20 20 17 12 20 23 25 20 29
15 10 14 22 19 15 11 16 16 13 12 14 16 18 15 15 15 17 15 14 15 16 14 9 15 15 20 22 22 25 23 21 22 22 23 25 25 20 22 27 20 26 33 26 35
14 13 13 12 15 12 12 18 16 16 14 10 17 12 14 16 19 18 18 19 16 14 13 13 9 10 15 16 18 14 20 17 18 18 14 17 23 21 22 16 12 14 17 11 12
Wind_Direction
336 333 330 327 325 320 314 310 305 301 297 298 302 309 311 305 290 287 276 253 264 264 269 244 242 235 235 238 235 235 247 252 250 252 262 269 261 186 194 211 259 225 258 269 42
336 328 322 321 320 317 312 308 303 297 290 286 288 299 307 302 290 275 249 252 276 261 245 230 240 233 234 233 233 231 240 242 252 265 266 263 259 254 174 202 235 229 246 273 279
331 323 321 316 314 314 311 308 305 297 287 275 276 289 304 303 311 205 208 268 251 207 176 258 251 246 241 237 231 233 240 246 249 253 261 270 275 266 187 202 207 235 241 238 282
329 324 321 317 314 315 312 308 305 300 289 274 271 281 299 299 331 181 256 275 63 185 243 249 246 246 246 243 242 245 242 249 253 263 272 277 275 270 272 247 188 206 225 250 275
333 325 319 318 316 318 316 313 306 302 292 271 266 272 286 260 262 196 257 278 184 60 242 239 243 245 248 248 255 245 252 256 253 252 263 272 274 279 278 266 244 193 207 227 247
334 328 319 318 315 319 322 321 319 309 285 257 252 266 281 262 143 248 189 193 217 244 253 261 260 287 288 267 258 264 256 259 256 261 265 261 260 270 265 267 263 263 222 206 245
333 331 327 322 323 328 337 333 327 325 304 253 231 248 267 234 235 221 205 226 239 250 261 250 268 281 270 269 252 268 273 274 264 255 261 257 258 243 258 261 261 263 259 215 221
342 337 337 339 339 351 357 354 338 317 304 233 227 257 260 263 237 231 224 234 244 252 253 271 275 273 275 278 285 269 263 260 251 254 247 248 258 245 246 251 255 255 257 262 231
349 344 342 356 27 6 354 2 358 344 258 211 225 242 267 224 240 229 229 238 244 239 252 259 271 270 271 258 258 244 255 253 254 244 245 233 244 249 254 258 250 243 259 241 237
357 348 347 2 29 12 345 326 319 300 255 262 246 262 257 258 217 221 227 237 246 252 252 247 252 252 246 245 255 262 250 238 244 252 252 239 245 241 254 252 253 237 251 262 247
2 354 347 20 25 22 1 310 315 238 225 246 297 243 300 264 240 227 223 221 242 249 261 254 243 251 247 254 256 265 269 283 291 295 306 244 236 250 252 256 257 228 229 243 242
3 359 349 346 9 17 357 300 358 313 299 264 248 254 259 251 270 228 224 221 231 245 256 241 249 259 263 263 277 279 280 282 287 278 280 276 263 258 263 269 267 223 223 226 236
355 359 356 342 345 334 346 334 330 317 280 288 222 239 236 228 243 255 215 228 248 265 255 258 277 290 292 279 282 269 266 273 276 279 269 255 259 258 266 264 264 257 233 232 226
343 353 351 310 317 326 277 318 330 323 278 232 192 241 208 207 241 238 241 236 247 258 262 270 279 290 292 284 274 272 272 262 261 262 266 272 268 253 251 232 239 238 243 241 236
339 320 313 289 303 303 316 318 316 304 287 157 145 122 226 205 319 215 227 250 253 274 276 271 270 262 272 257 264 274 268 294 301 287 284 257 264 268 277 276 249 215 226 234 230
329 311 284 296 293 299 314 309 306 238 252 158 158 224 218 224 247 262 211 224 260 279 275 272 271 274 275 265 261 264 278 281 284 284 269 263 259 267 265 260 255 204 197 202 205
327 308 274 258 265 308 308 279 247 246 127 247 276 305 261 267 271 248 242 243 242 256 256 265 286 289 274 265 277 248 252 257 249 245 258 261 316 280 258 238 291 150 169 168 186
335 315 273 245 269 296 302 250 252 281 314 14 343 312 292 284 273 268 285 287 254 263 264 274 292 298 346 328 281 273 295 243 254 258 259 245 261 255 328 197 188 166 170 183 188
345 336 320 283 238 279 277 245 249 293 336 338 323 290 285 298 290 259 270 275 299 314 297 292 273 294 180 221 251 264 252 277 276 285 277 268 244 280 279 301 185 177 171 183 191
347 294 278 184 243 268 260 264 289 290 356 318 296 299 297 308 320 310 307 314 319 14 285 300 298 298 315 23 280 199 275 287 219 241 246 261 249 235 269 264 275 185 201 206 191
341 278 175 208 258 255 253 277 309 350 351 308 299 299 300 300 300 297 299 305 11 351 350 308 300 298 344 285 284 217 223 249 301 238 259 283 283 57 327 177 230 213 206 192 212
336 288 181 189 266 240 256 332 318 292 297 288 282 279 280 288 295 300 304 305 22 331 280 201 264 272 282 258 279 302 276 290 184 296 286 258 254 286 212 224 332 257 234 224 227
316 287 226 270 280 322 325 322 321 307 316 302 300 303 309 301 301 295 291 292 307 287 329 1 302 317 322 297 36 20 304 294 320 257 216 241 270 274 44 299 275 261 245 231 238
299 309 330 269 267 261 317 316 311 316 295 294 291 301 292 283 288 301 306 301 235 269 118 126 282 275 275 285 306 211 242 271 196 255 262 259 281 285 157 234 276 291 279 315 303
279 307 347 299 318 322 305 304 304 307 322 314 298 292 295 307 305 297 297 307 320 149 215 233 273 282 285 284 285 292 292 255 261 279 273 268 270 276 284 206 238 233 266 295 283
309 338 325 303 298 298 292 286 312 329 334 312 307 301 302 298 294 302 307 301 296 302 305 276 267 273 282 284 284 280 295 287 278 268 265 268 262 261 266 265 250 234 238 242 264
317 318 297 287 298 309 307 326 315 312 306 288 300 289 288 298 315 305 296 287 282 285 283 291 306 312 282 288 305 277 260 274 291 304 301 298 299 326 329 270 287 331 330 308 284